Home   Weather   Sonneberg   Past weeks

Flag for Germany Past Weather in Sonneberg, Thuringia, Germany — Yesterday and Last 2 Weeks

Now
30 °F

Sunny.


Feels Like: 23 °F
Forecast: 21 / 33 °F
Wind: 7 mph from Northeast

Location: Hof Airport

Current Time: Dec 3, 2016 at 12:53:57 pm

Latest Report: Dec 3, 2016 at 12:20 pm


Visibility: 10 mi

Pressure: 30.24 "Hg

Humidity: 80%

Dew Point: 25 °F

Location of SonnebergLocation

Past Weather in Sonneberg — Graph

°F

Sonneberg Temperature Yesterday

Maximum temperature yesterday: 37 °F (at 7:50 am)
Minimum temperature yesterday: 28 °F (at 7:50 pm)
Average temperature yesterday: 34 °F

High & Low Weather Summary for the Past Weeks

 TemperatureHumidityPressure
High54 °F (Nov 18, 11:50 am)100% (Nov 26, 9:20 am)30.48 "Hg (Nov 26, 9:20 am)
Low19 °F (Nov 29, 7:50 am)55% (Nov 29, 1:50 pm)29.53 "Hg (Nov 18, 12:20 pm)
Average36 °F83%30.06 "Hg
* Reported Nov 18 11:20 am — Dec 3 11:20 am, Sonneberg, Weather by CustomWeather, © 2016

Note: Actual official high and low records may vary slightly from our data, if they occured in-between our weather recording intervals... More about our weather records

Advertising

Sonneberg Weather History for the Previous 24 Hours

Scroll right to see more
 ConditionsComfort  
Time TempWeatherWind HumidityBarometerVisibility
11:20 am
Sat, Dec 3
28 °FSunny.6 mph86%30.24 "Hg10 mi
10:50 am28 °FSunny.No wind80%30.24 "Hg10 mi
10:20 am28 °FSunny.No wind80%30.24 "Hg10 mi
9:50 am27 °FSunny.No wind86%30.24 "Hg10 mi
9:20 am25 °FSunny.No wind86%30.21 "Hg10 mi
7:50 pm
Fri, Dec 2
28 °FClear.5 mph86%30.15 "Hg10 mi
7:20 pm30 °FClear.6 mph80%30.15 "Hg10 mi
6:50 pm30 °FClear.3 mph86%30.15 "Hg10 mi
6:20 pm30 °FClear.3 mph86%30.15 "Hg10 mi
5:50 pm30 °FPassing clouds.3 mph86%30.12 "HgN/A
5:20 pm32 °FClear.5 mph87%30.12 "Hg10 mi
4:50 pm30 °FClear.5 mph86%30.12 "Hg10 mi
4:20 pm30 °FPassing clouds.3 mph86%30.12 "HgN/A
3:50 pm32 °FPassing clouds.2 mph80%30.12 "HgN/A
2:50 pm34 °FPassing clouds.7 mph75%30.09 "HgN/A
2:20 pm34 °FPassing clouds.7 mph75%30.09 "HgN/A
1:50 pm36 °FPassing clouds.8 mph70%30.09 "HgN/A
1:20 pm36 °FPassing clouds.8 mph70%30.09 "HgN/A
12:50 pm36 °FPassing clouds.10 mph70%30.07 "HgN/A
12:20 pm36 °FBroken clouds.9 mph75%30.07 "HgN/A
Weather by CustomWeather, © 2016

See weather overviewHow to use our weather pages